Weather Service Report


453 
ASUS41 KALY 230610
RWRALY

NEW YORK STATE HOURLY WEATHER ROUNDUP
NATIONAL WEATHER SERVICE ALBANY NY
200 AM EDT THU OCT 23 2014

NOTE: "FAIR" INDICATES FEW OR NO CLOUDS BELOW 12,000 FEET WITH NO
SIGNIFICANT WEATHER AND/OR NO OBSTRUCTIONS TO VISIBILITY.

NYZ032-033-038>043-046>054-057>066-NYZ062>081-230700-
EAST

  
CITY           SKY/WX    TMP DP  RH WIND       PRES   REMARKS
ALBANY         RAIN      49  43  80 N13G21    29.91F                  
GLENS FALLS    CLOUDY    52  41  66 NE9       29.94S                  
POUGHKEEPSIE   LGT RAIN  50  46  86 N13       29.80F                  
NEWBURGH       CLOUDY    50  48  93 NE21G32   29.82S                  
MONTGOMERY     LGT RAIN  50  46  86 N15       29.78F                  
WHITE PLAINS   MOCLDY    51  45  79 N14G31    29.71F                  
ISLIP          CLOUDY    52  47  83 N28       29.64F                  
NEW YORK CITY  CLOUDY    53  47  79 N15G22    29.71F                  
CENTRAL PARK   CLOUDY    52  46  80 N8G23     29.75S                  
$$

NYZ005>009-017-018-044>046-055-056-230700-
CENTRAL

  
CITY           SKY/WX    TMP DP  RH WIND       PRES   REMARKS
FULTON         PTCLDY    48  36  63 N16G23    30.04F                  
SYRACUSE       LGT RAIN  46  40  79 W6        30.03F                  
ROME           CLOUDY    46  38  73 CALM      30.01S                  
ELMIRA         CLOUDY    49  42  77 N13       30.01F                  
BINGHAMTON     CLOUDY    43  41  93 N17       29.95F                  
MONTICELLO     CLOUDY    45  45 100 N12       29.84F                  
$$

NYZ026>034-041>043-230700-
NORTH

  
CITY           SKY/WX    TMP DP  RH WIND       PRES   REMARKS
WATERTOWN      PTCLDY    47  33  58 NE15      30.08F                  
FORT DRUM      NOT AVBL                                               
MASSENA        CLEAR     44  35  70 NE14      30.15F                  
SARANAC LAKE   CLOUDY    41  36  82 N9        30.03F                  
PLATTSBURGH    CLOUDY    45  35  68 N18       30.09F                  
$$

NYZ001>004-010>016-019>021-230700-
WEST

  
CITY           SKY/WX    TMP DP  RH WIND       PRES   REMARKS
NIAGARA FALLS  CLEAR     44  40  85 N7        30.15F                  
BUFFALO        PTCLDY    43  40  89 N7        30.14F                  
DUNKIRK        CLOUDY    49  43  80 N10       30.16F                  
JAMESTOWN      CLOUDY    45  39  81 N8        30.13F                  
WELLSVILLE     CLOUDY    43  40  89 N14G21    30.07F                  
ROCHESTER      PTCLDY    49  40  71 N16       30.12F                  
PENN YAN       PTCLDY    47  41  80 NW7G20    30.06F                  
$$

             KEY
       WCI = WIND CHILL INDEX
       VSB = VISIBILITY
       HX  = HEAT INDEX
$$

Return to Home page


Western Regional Climate Center, wrcc@dri.edu